Погода Викулово

Погода Викулово : погода сейчас, прогноз погоды и архив. Всё, что Вы хотите узнать о погоде Викулово!

Поиск расширенной информации на нашем сайте:

Другие новости

Новости СМИ2

Главная страница сайта

Новости сайта

02.10.2013

Напоминаем, что на нашем новом сайте вы можете получить высокодетализированные прогнозы погоды по пунктам России, СНГ и мира (включающие важные для авиации метеовеличины, такие как направление и скорость ветра, видимость, явления погоды, количество и форма облачности, нижняя и верхняя граница облачности), а также ознакомиться с разнообразными материалами по авиационной метеорологии и подборкой полезных ссылок на эту тему.

Сайт Метеоцентр.Азия посвящён разработке технологий оптимизации авиаметеорологического обслуживания, включая проектирование и перспективное создание нескольких автоматизированных авиаметеорологических систем:
- система выпуска высокодетальных прогностических карт явлений погоды для нижнего воздушного пространства по России и ближнему зарубежью;
- система верификации прогнозов TAF (выпускаемых синоптиками официальных АМСГ РФ и ближнего зарубежья) и AUTOTAF (выпускаемых сайтом Метеоцентр.Азия) - выявление ошибок, онлайн-сопоставление с фактической погодой METAR, автоматическое внесение коррективов в прогнозы при резком отклонении фактической погоды от прогноза, подсчёт оправдываемости прогнозов по элементам и в целом;
- система обработки, анализа и отображения авиаметеорологической информации для применения провайдерами метеорологической информации.


Погода Викулово - сегодня

Время (UTC), дата Ветер
(°,м/с) 
Видим.   Явления Облачность Т
(°С)
Тd
(°С)
f(%) Тe
(°С)
Pmin
(гПа)
dP
(гПа)
Po
(мм)
O2
(г/м3)
Тmin Tmax R s Состояние
почвы
03 21.01.17 170 (Ю) 6-10{11}  4000 м  слаб. снег  10/0 средняя 
[As op]
-13.6 -16.4 79 -20  997.9  -2.8  741  316  -19    0.0  50  равномерный
сухой снег
100% 
06 21.01.17 190 (Ю) 5-10{11}  2000 м  сильн. снег  10/0 средняя 
[As op]
-12.5 -15.1 81 -18  996.7  -1.2  740  314           
09 21.01.17 190 (Ю) 5{12}  10 км  позёмок{снег}  8/8 600 м 
[Sc]
-11.6 -15.5 73 -17  996  -0.7  740  312           
12 21.01.17 180 (Ю) 10 км  позёмок{снег}  8/3 600 м верхняя 
[Sc|Cs]
-12.1 -15.4 76 -16  996.9  0.9  740  313           
15 21.01.17 190 (Ю) 10 км    ясно 
-13.4 -16.3 79 -17  998.2  1.2  741  315    -11.5  0.8     
18 21.01.17 180 (Ю) 10 км    8/0 средняя 
[Ac trans]
-13.4 -16.1 80 -18  999.2  742  316           
21 21.01.17 180 (Ю) 10 км    10/0 средняя 
[Ac As]
-12.1 -14.6 82 -16  999.7  0.6  742  314           
00 22.01.17 200 (Ю) 10 км  {снег}  8/0 средняя 
[As trans]
-11.8 -14.6 80 -16  1001.1  1.3  743  314           
03 22.01.17 190 (Ю) 10 км    8/0 средняя 
[As trans]
-12 -14.5 82 -15  1001.8  0.8  744  315  -13.9    0.0  50  равномерный
сухой снег
100% 
06 22.01.17 180 (Ю) 10 км    8/0 средняя 
[As trans]
-11 -13.9 79 -15  1002  0.2  744  314           
09 22.01.17 180 (Ю) 10 км  слаб. снег  10/0 средняя 
[As op]
-8.9 -12.3 76 -13  1000.7  -1.2  743  311           
12 22.01.17 160 (Ю) 10 км  {снег}  10/0 средняя 
[As op]
-10.1 -12.5 83 -13  999.3  -1.4  742  312           
15 22.01.17 170 (Ю) 5{10}  4000 м  слаб. снег  10/0 средняя 
[As op]
-9.1 -11.6 82 -14  997.2  -2  741  310    -8.8  0.3     
18 22.01.17 180 (Ю) 10 км  снежные кристаллы  10/0 средняя 
[Ac As]
-9.4 -11.6 84 -13  995.7  -1.6  739  310           
21 22.01.17 180 (Ю) 10 км  {снег}  8/0 средняя 
[Ac As]
-11.4 -13.4 85 -15  994.9  -0.8  739  312           
00 23.01.17 210 (ЮЗ) 10 км  {снег}  ясно 
-13.4 -15.3 86 -16  995.2  0.1  739  314           
03 23.01.17 180 (Ю) 10 км    5/0 средняя 
[As trans]
-14.7 -16.8 84 -17  995.8  0.6  739  316  -14.7    0.2  49  равномерный
сухой снег
100% 
06 23.01.17 200 (Ю) 10 км    3/0 средняя 
[As trans]
-15.1 -17.7 80 -20  997.1  1.3  740  317  -15.5         
09 23.01.17 200 (Ю) 20000 м  {снег}  3/0 средняя, верхняя 
[As trans|Ci sp]
-13.8 -17.3 75 -17  997.7  0.6  741  316           
12 23.01.17 190 (Ю) 20000 м  {снег}  8/0 средняя, верхняя 
[Ac trans|Ci sp]
-15.9 -19.1 76 -20  998.6  0.9  741  319           
15 23.01.17 180 (Ю) 10 км    ясно 
-18.1 -20.7 80 -21  1000.3  1.5  743  322    -13.5  0.0     
18 23.01.17 190 (Ю) 10 км    ясно 
-19.9 -22.6 79 -23  1001.6  1.2  743  325           
21 23.01.17 180 (Ю) 10 км    ясно 
-20.9 -23.7 78 -25  1002.7  1.1  744  326           
00 24.01.17 180 (Ю) 10 км  снежные кристаллы  10/0 средняя 
[As trans]
-19.8 -22.7 78 -25  1003.5  0.8  745  325           
03 24.01.17 180 (Ю) 10 км  [диам. изморози 1 мм]  8/0 средняя 
[Ac As]
-20.9 -23.7 78 -25  1004.2  0.7  745  327  -21.1    0.0  49  равномерный
сухой снег
100% 
Время (UTC), дата Ветер
(°,м/с) 
Видим.   Явления Облачность Т
(°С)
Тd
(°С)
f(%) Тe
(°С)
Pmin
(гПа)
dP
(гПа)
Po
(мм)
O2
(г/м3)
Тmin Tmax R s Состояние
почвы

Для получения пояснительной информации подведите курсор к названию столбца.

ПОГОДА Викулово - архив

Всё, что Вы хотите узнать о погоде Викулово - удобно и подробно!

Выберите нужную дату (начиная с 1 января 2015* года) и нажмите кнопку "Найти".
Будут отображены архивные сводки погоды по пункту Викулово, начиная с указанной даты.


Отображать данные в формате CSV (для использования в таблицах Excel)


Внимание! Наш архив погоды предназначен исключительно для личного некоммерческого использования в познавательных целях. Если Вам необходимы официальные справки о состоянии погоды (для производственных, юридических, коммерческих и т.п. целей), обращайтесь в органы Росгидромета.

*Примечание: данная дата относится к архиву по метеостанциям СССР (Россия, СНГ, Балтия).
Архив по метеостанциям Зарубежной Европы и Азии (кроме Китая) хранится 10 дней, по другим регионам земного шара (Китай, Африка, Америка, Австралия, Океания) - 1 день.

Викулово - район местоположения метеостанции


Название, широта, долгота, высота метеостанции:
Викулово 56.8°ш. 70.6°д. 78 м над ур. моря [Российская Федерация]

Дополнительная информация

В oтличие oт бoльшинства пoгoдных сайтoв мы публикуем пoдрoбную метеoинфoрмацию в детальнoм прoфессиoнальнoм фoрмате.

Характеристики температуры и влажнoсти вoздуха измеряются на высoте 2 м в тени вдали oт зданий и деревьев.
Скoрoсть ветра измеряется на высoте 10 м (на урoвне рoста челoвека скoрoсть ветра ниже в 1.5-2 раза). Если метеoстанция нахoдится в гoрoде или в лесу, тo скoрoсть ветра занижена на 2-4 м/с пo сравнению с oткрытым местoм. Скoрoсть ветра над акватoриями крупных рек и oзёр, а также на вершинах хoлмoв на 2-5 м/с выше, чем в oбычных услoвиях.
Атмoсфернoе давление в разных тoчках местнoсти мoжет значительнo oтличаться oт давления на метеoстанции, в зависимoсти oт услoвий рельефа (при пoдъёме на 10 м давление пoнижается примернo на 1 мм рт.ст.).